Los Alamos, NM

12:43 AM MDT on August 27, 2016 (GMT -0600)
Los Alamos

Weather History for KLAM - October, 2011

Change the Weather History Date:

Thursday, October 6, 2011

  Actual Average Record
Temperature  
Mean Temperature 50 °F -  
Max Temperature 60 °F 64 °F 77 °F (1979)
Min Temperature 41 °F 40 °F 30 °F (1969)
Degree Days  
Heating Degree Days 14    
Moisture  
Dew Point 36 °F    
Average Humidity 59    
Maximum Humidity 81    
Minimum Humidity 34    
Precipitation  
Precipitation 0.00 in - - ()
Sea Level Pressure  
Sea Level Pressure 29.89 in    
Wind  
Wind Speed 13 mph (South)    
Max Wind Speed 28 mph    
Max Gust Speed 39 mph    
Visibility 10 miles    
Events      
Averages and records for this station are not official NWS values.
T = Trace of Precipitation, MM = Missing Value Source: NWS Daily Summary

Daily Weather History Graph

Daily Weather History Graph

Search for Another Location

Airport or City:

Trip Planner

Search our weather history database for the weather conditions in past years. The results will help you decide how hot, cold, wet, or windy it might be!

Date:

Astronomy

Oct. 06, 2011 Rise Set
Actual Time 7:03 AM MDT 6:41 PM MDT
Civil Twilight 6:38 AM MDT 7:07 PM MDT
Nautical Twilight 6:08 AM MDT 7:37 PM MDT
Astronomical Twilight 5:39 AM MDT 8:06 PM MDT
Moon 3:48 PM MDT (10/6) 2:04 AM MDT (10/6)
Length of Visible Light 12h 29m
Length of Day
11h 37m
Waxing Gibbous, 76% of the Moon is Illuminated
Oct 6
Waxing Gibbous
Oct 11
Full
Oct 19
Last Quarter
Oct 26
New
Nov 2
First Quarter

Hourly Weather History & Observations

Time (MDT) Temp. Windchill Dew Point Humidity Pressure Visibility Wind Dir Wind Speed Gust Speed Precip Events Conditions
12:15 AM 50.0 °F - 42.8 °F 76% 29.99 in 10.0 mi South 6.9 mph - N/A   Clear
12:35 AM 50.0 °F - 41.0 °F 71% 29.98 in 10.0 mi South 9.2 mph - N/A   Clear
12:55 AM 50.0 °F - 41.0 °F 71% 29.97 in 10.0 mi South 12.7 mph - N/A   Scattered Clouds
1:15 AM 48.2 °F - 41.0 °F 76% 29.96 in 10.0 mi South 13.8 mph 17.3 mph N/A   Overcast
1:35 AM 46.4 °F 41.1 °F 41.0 °F 81% 29.95 in 10.0 mi South 11.5 mph - N/A   Overcast
1:55 AM 48.2 °F - 39.2 °F 71% 29.95 in 10.0 mi South 12.7 mph - N/A   Overcast
2:15 AM 48.2 °F - 41.0 °F 76% 29.94 in 10.0 mi South 11.5 mph - N/A   Overcast
2:35 AM 50.0 °F - 39.2 °F 66% 29.94 in 10.0 mi South 9.2 mph - N/A   Overcast
2:55 AM 48.2 °F - 41.0 °F 76% 29.94 in 10.0 mi South 11.5 mph - N/A   Overcast
3:15 AM 48.2 °F - 41.0 °F 76% 29.93 in 10.0 mi South 9.2 mph - N/A   Overcast
3:35 AM 48.2 °F - 39.2 °F 71% 29.93 in 10.0 mi South 11.5 mph 16.1 mph N/A   Overcast
3:55 AM 50.0 °F - 37.4 °F 62% 29.91 in 10.0 mi South 11.5 mph 16.1 mph N/A   Overcast
4:15 AM 50.0 °F - 37.4 °F 62% 29.91 in 10.0 mi South 10.4 mph 16.1 mph N/A   Overcast
4:35 AM 51.8 °F - 37.4 °F 58% 29.91 in 10.0 mi South 11.5 mph 16.1 mph N/A   Overcast
4:55 AM 51.8 °F - 37.4 °F 58% 29.91 in 10.0 mi SSW 11.5 mph 18.4 mph N/A   Mostly Cloudy
5:15 AM 51.8 °F - 37.4 °F 58% 29.90 in 10.0 mi South 12.7 mph 23.0 mph N/A   Overcast
5:35 AM 51.8 °F - 37.4 °F 58% 29.90 in 10.0 mi South 17.3 mph 24.2 mph N/A   Overcast
5:55 AM 51.8 °F - 37.4 °F 58% 29.89 in 10.0 mi South 13.8 mph 21.9 mph N/A   Overcast
6:15 AM 50.0 °F - 37.4 °F 62% 29.89 in 10.0 mi South 16.1 mph 26.5 mph N/A   Overcast
6:35 AM 50.0 °F - 37.4 °F 62% 29.88 in 10.0 mi South 12.7 mph 21.9 mph N/A   Overcast
6:55 AM 50.0 °F - 37.4 °F 62% 29.87 in 10.0 mi South 20.7 mph 28.8 mph N/A   Overcast
7:15 AM 50.0 °F - 35.6 °F 58% 29.87 in 10.0 mi South 16.1 mph 26.5 mph N/A   Overcast
7:35 AM 50.0 °F - 35.6 °F 58% 29.87 in 10.0 mi South 27.6 mph 32.2 mph N/A   Overcast
7:55 AM 50.0 °F - 35.6 °F 58% 29.87 in 10.0 mi South 20.7 mph 36.8 mph N/A   Overcast
8:15 AM 50.0 °F - 35.6 °F 58% 29.86 in 10.0 mi South 23.0 mph 32.2 mph N/A   Overcast
8:35 AM 51.8 °F - 35.6 °F 54% 29.86 in 10.0 mi South 26.5 mph 36.8 mph N/A   Overcast
8:55 AM - - - N/A% - - North - - N/A   Unknown
10:35 AM 53.6 °F - 37.4 °F 54% 29.85 in 10.0 mi South 25.3 mph 34.5 mph N/A   Unknown
10:55 AM 55.4 °F - 37.4 °F 51% 29.85 in 10.0 mi South 26.5 mph 36.8 mph N/A   Scattered Clouds
11:15 AM 55.4 °F - 37.4 °F 51% 29.85 in 10.0 mi South 20.7 mph 29.9 mph N/A   Mostly Cloudy
11:35 AM 55.4 °F - 35.6 °F 47% 29.84 in 10.0 mi South 24.2 mph 34.5 mph N/A   Overcast
12:15 PM 55.4 °F - 32.0 °F 41% 29.83 in 10.0 mi South 21.9 mph 36.8 mph N/A   Overcast
12:35 PM 55.4 °F - 32.0 °F 41% 29.83 in 10.0 mi South 20.7 mph 31.1 mph N/A   Overcast
12:55 PM 55.4 °F - 32.0 °F 41% 29.83 in 10.0 mi South 24.2 mph 34.5 mph N/A   Overcast
1:15 PM 57.2 °F - 32.0 °F 38% 29.83 in 10.0 mi South 25.3 mph 39.1 mph N/A   Overcast
1:35 PM 57.2 °F - 32.0 °F 38% 29.82 in 10.0 mi South 15.0 mph 31.1 mph N/A   Overcast
1:55 PM 57.2 °F - 32.0 °F 38% 29.82 in 10.0 mi South 17.3 mph 34.5 mph N/A   Overcast
2:35 PM 59.0 °F - 32.0 °F 36% 29.81 in 10.0 mi South 17.3 mph 36.8 mph N/A   Overcast
2:55 PM 60.8 °F - 32.0 °F 34% 29.80 in 10.0 mi South 16.1 mph 36.8 mph N/A   Mostly Cloudy
3:15 PM 60.8 °F - 32.0 °F 34% 29.81 in 10.0 mi SSW 16.1 mph 35.7 mph N/A   Mostly Cloudy
3:35 PM 59.0 °F - 33.8 °F 39% 29.83 in 10.0 mi SW 24.2 mph 32.2 mph N/A   Overcast
3:55 PM 57.2 °F - 33.8 °F 41% 29.83 in 10.0 mi SW 18.4 mph 26.5 mph N/A   Mostly Cloudy
4:15 PM 59.0 °F - 33.8 °F 39% 29.83 in 10.0 mi SW 16.1 mph 27.6 mph N/A   Scattered Clouds
4:35 PM 59.0 °F - 33.8 °F 39% 29.84 in 10.0 mi SSW 16.1 mph 24.2 mph N/A   Overcast
5:15 PM 53.6 °F - 35.6 °F 51% 29.87 in 10.0 mi East 12.7 mph - N/A   Overcast
5:35 PM 46.4 °F 40.7 °F 35.6 °F 66% 29.88 in 10.0 mi East 12.7 mph - N/A   Overcast
5:55 PM 44.6 °F 39.7 °F 35.6 °F 71% 29.89 in 10.0 mi ENE 9.2 mph - N/A   Overcast
6:15 PM 42.8 °F 39.3 °F 33.8 °F 70% 29.91 in 10.0 mi NE 5.8 mph - N/A   Overcast
6:35 PM 42.8 °F - 33.8 °F 70% 29.92 in 10.0 mi Calm Calm - N/A   Overcast
6:55 PM 42.8 °F 39.3 °F 33.8 °F 70% 29.92 in 10.0 mi East 5.8 mph - N/A   Overcast
7:15 PM 42.8 °F 40.1 °F 35.6 °F 76% 29.94 in 10.0 mi East 4.6 mph - N/A   Overcast
7:35 PM 42.8 °F 38.6 °F 35.6 °F 76% 29.95 in 10.0 mi East 6.9 mph - N/A   Overcast
8:15 PM 41.0 °F - 33.8 °F 76% 29.96 in 10.0 mi Calm Calm - N/A   Overcast
8:35 PM 41.0 °F - 33.8 °F 76% 29.96 in 10.0 mi Calm Calm - N/A   Overcast
8:55 PM 41.0 °F 39.0 °F 33.8 °F 76% 29.97 in 10.0 mi ESE 3.5 mph - N/A   Overcast
9:15 PM 41.0 °F 39.0 °F 35.6 °F 81% 29.98 in 10.0 mi ESE 3.5 mph - N/A   Overcast
9:35 PM 41.0 °F 38.0 °F 35.6 °F 81% 29.98 in 10.0 mi East 4.6 mph - N/A   Overcast
9:55 PM 39.2 °F 35.0 °F 35.6 °F 87% 30.00 in 10.0 mi ESE 5.8 mph - N/A Rain Light Rain
10:15 PM 39.2 °F 37.0 °F 35.6 °F 87% 29.99 in 10.0 mi NE 3.5 mph - N/A   Overcast
10:35 PM 37.4 °F 34.9 °F 35.6 °F 93% 30.00 in 10.0 mi East 3.5 mph - N/A Snow Snow
10:55 PM 37.4 °F - 35.6 °F 93% 30.02 in 10.0 mi Calm Calm - N/A Rain Light Rain
11:15 PM 37.4 °F - 35.6 °F 93% 30.01 in 10.0 mi Calm Calm - N/A Rain Light Rain
11:35 PM 37.4 °F - 35.6 °F 93% 30.01 in 10.0 mi Calm Calm - N/A   Overcast
11:55 PM 37.4 °F 34.9 °F 35.6 °F 93% 30.00 in 10.0 mi NNE 3.5 mph - N/A   Overcast